Flag for U.S.A. Weather past 2 weeks in Citrus Heights, California, U.S.A.

Now
61 °F

Partly sunny.


Feels Like: 61 °F
Forecast: 51 / 65 °F
Wind: 6 mph from Northwest

Location: Mather Field

Current Time: Apr 25, 2015 at 12:28:21 PM

Latest Report: Apr 25, 2015 at 10:50 AM


Visibility: 10 mi

Pressure: 29.93 "Hg

Humidity: 68%

Dew point: 50 °F

Location of Citrus HeightsLocation

Historic Weather in Citrus Heights — Graph

°F

Citrus Heights temperature yesterday

Maximum temperature yesterday: 72 °F (at 2:57 PM)
Minimum temperature yesterday: 50 °F (at 8:46 PM)
Average temperature yesterday: 58 °F

Past Weeks' High & Low Weather Summary

 TemperatureHumidityPressure
High84 °F (Apr 18, 3:45 PM)100% (Apr 21, 2:55 AM)30.34 "Hg (Apr 21, 2:55 AM)
Low43 °F (Apr 11, 5:45 AM)13% (Apr 16, 2:48 PM)29.75 "Hg (Apr 20, 5:45 PM)
Average62 °F56%29.96 "Hg
* Reported Apr 10 10:45 AM — Apr 25 10:50 AM, Citrus Heights, Weather by CustomWeather, © 2015

Note: Actual official high and low records may vary slightly from our data, if they occured in-between our weather recording intervals... More about our weather records

Advertising

Citrus Heights weather history for previous 24 hours

 ConditionsComfort  
Time TempWeatherWind HumidityBarometerVisibility
10:50 AM
Sat, Apr 25
61 °FPartly sunny.6 mph68%29.93 "Hg10 mi
9:55 AM59 °FBroken clouds.3 mph72%29.92 "Hg10 mi
8:45 AM57 °FScattered clouds.7 mph88%29.91 "Hg10 mi
7:45 AM54 °FScattered clouds.6 mph100%29.89 "Hg10 mi
6:45 AM50 °FPassing clouds.5 mph100%29.87 "Hg10 mi
5:45 AM54 °FPassing clouds.7 mph94%29.86 "Hg10 mi
4:45 AM55 °FMostly cloudy.8 mph94%29.85 "Hg8 mi
3:45 AM54 °FRain. Fog.12 mph100%29.85 "Hg3 mi
2:45 AM54 °FOvercast.14 mph100%29.85 "Hg5 mi
11:30 PM
Fri, Apr 24
50 °FLight rain. Fog.9 mph94%29.95 "Hg3 mi
10:47 PM50 °FLight rain. Fog.6 mph94%29.96 "Hg3 mi
9:46 PM52 °FMostly cloudy.6 mph88%29.97 "Hg10 mi
8:46 PM50 °FLight rain. Fog.7 mph94%29.97 "Hg5 mi
7:46 PM54 °FLight rain. Fog.9 mph77%29.96 "Hg5 mi
6:46 PM63 °FPartly sunny.12 mph42%29.93 "Hg10 mi
3:45 PM72 °FScattered clouds.13 mph31%29.91 "Hg10 mi
2:57 PM72 °FBroken clouds.9 mph29%29.92 "Hg10 mi
1:45 PM70 °FBroken clouds.14 mph38%29.93 "Hg10 mi
12:55 PM70 °FPartly sunny.10 mph40%29.94 "Hg10 mi
Weather by CustomWeather, © 2015

See weather overviewHow to use our weather pages